period_start,C,m1,H,J0,J1,J2,J3,J4,J5,JA,JB,JC,JD,JJ,JK,JN,#
2014-10-29 00:02:59,0.11,0.58,0.00,22.92,27.22,29.98,4.75,27.32,1008.16,2035.00,3193.85,3158.17,3407.70,349.77,344.71,8.05,0000 0000 0000 0000 000000
2014-10-29 00:08:01,0.11,0.59,0.00,22.93,27.22,30.00,4.76,27.38,1007.88,2035.00,3192.59,3157.26,3406.65,349.87,344.64,8.08,0000 0000 0000 0000 000000
2014-10-29 00:13:02,0.11,0.59,0.00,22.93,27.22,30.01,4.80,27.38,1007.87,2035.00,3191.22,3156.31,3405.53,350.26,344.83,8.11,0000 0000 0000 0000 000000
2014-10-29 00:18:03,0.11,0.59,0.00,22.92,27.22,30.00,4.73,27.27,1007.85,2035.00,3189.77,3155.35,3404.46,349.93,344.84,8.14,0000 0000 0000 0000 000000
2014-10-29 00:23:05,0.11,0.60,0.00,22.92,27.22,29.99,4.71,27.17,1007.89,2035.00,3188.48,3154.36,3403.38,350.01,344.80,8.17,0000 0000 0000 0000 000000
2014-10-29 00:28:06,0.10,0.60,0.00,22.92,27.22,30.02,4.74,27.30,1008.20,2035.00,3187.09,3153.40,3402.26,349.95,345.12,8.20,0000 0000 0000 0000 000000
2014-10-29 00:33:07,0.11,0.60,0.00,22.92,27.22,30.00,4.74,27.33,1008.31,2035.00,3185.68,3152.45,3401.17,349.75,344.88,8.23,0000 0000 0000 0000 000000
2014-10-29 00:38:09,0.12,0.61,0.00,22.91,27.22,30.00,4.75,27.43,1008.32,2035.00,3184.20,3151.36,3399.91,350.05,344.93,8.26,0000 0000 0000 0000 000000
2014-10-29 00:43:10,0.10,0.61,0.00,22.91,27.22,30.01,4.75,27.19,1008.33,2035.00,3182.79,3150.36,3398.90,349.68,344.58,8.29,0000 0000 0000 0000 000000
2014-10-29 00:48:11,0.12,0.61,0.00,22.91,27.22,30.02,4.74,27.27,1008.34,2035.00,3181.35,3149.41,3397.77,349.66,344.62,8.32,0000 0000 0000 0000 000000
2014-10-29 00:53:12,0.12,0.62,0.00,22.92,27.22,30.03,4.76,27.23,1008.34,2035.00,3179.79,3148.42,3396.69,350.23,345.32,8.35,0000 0000 0000 0000 000000
2014-10-29 00:58:14,0.12,0.62,0.00,22.92,27.22,30.02,4.67,27.18,1008.52,2035.01,3178.28,3147.28,3395.55,349.18,344.17,8.38,0000 0000 0000 0000 000000
2014-10-29 01:03:15,0.11,0.62,0.00,22.92,27.22,29.99,4.75,27.34,1008.69,2035.00,3176.85,3146.30,3394.40,349.37,344.44,8.41,0000 0000 0000 0000 000000
2014-10-29 01:08:16,0.09,0.63,0.00,22.92,27.22,29.96,4.73,27.37,1008.58,2035.01,3175.78,3145.43,3393.32,349.75,344.72,8.44,0000 0000 0000 0000 000000
2014-10-29 01:13:17,0.10,0.63,0.00,22.92,27.22,29.95,4.76,27.45,1008.40,2035.00,3174.55,3144.55,3392.25,349.79,344.58,8.46,0000 0000 0000 0000 000000
2014-10-29 01:18:19,0.09,0.63,0.00,22.92,27.22,29.96,4.87,27.36,1008.47,2035.01,3173.30,3143.65,3391.27,350.58,345.69,8.49,0000 0000 0000 0000 000000
2014-10-29 01:23:20,0.07,0.64,0.00,22.92,27.22,29.97,4.75,27.38,1008.65,2035.00,3172.04,3142.87,3390.51,349.99,345.17,8.52,0000 0000 0000 0000 000000
2014-10-29 01:28:21,0.11,0.64,0.00,22.92,27.22,29.94,4.73,27.32,1008.46,2035.00,3170.81,3141.98,3389.51,349.82,344.69,8.55,0000 0000 0000 0000 000000
2014-10-29 01:33:22,0.10,0.64,0.00,22.93,27.22,29.96,4.71,27.24,1008.35,2035.00,3169.51,3141.09,3388.52,349.78,344.94,8.58,0000 0000 0000 0000 000000
2014-10-29 01:38:23,0.10,0.65,0.00,22.92,27.22,29.97,4.72,27.38,1008.39,2035.00,3168.16,3140.22,3387.56,349.63,344.76,8.61,0000 0000 0000 0000 000000
2014-10-29 01:43:25,0.11,0.65,0.00,22.91,27.22,29.96,4.74,27.18,1008.60,2035.00,3166.82,3139.21,3386.54,349.79,344.83,8.64,0000 0000 0000 0000 000000
2014-10-29 01:48:27,0.11,0.65,0.00,22.90,27.22,29.98,4.75,27.18,1008.79,2035.00,3165.49,3138.30,3385.42,350.38,345.38,8.67,0000 0000 0000 0000 000000
2014-10-29 01:53:28,0.09,0.65,0.00,22.91,27.22,29.99,4.71,27.27,1008.80,2034.99,3164.28,3137.47,3384.44,349.51,344.45,8.70,0000 0000 0000 0000 000000
2014-10-29 01:58:29,0.10,0.66,0.00,22.93,27.22,29.96,4.76,27.38,1008.81,2034.99,3162.90,3136.59,3383.46,350.11,345.31,8.73,0000 0000 0000 0000 000000
2014-10-29 02:03:31,0.10,0.66,0.00,22.94,27.22,29.97,4.73,27.26,1008.85,2034.99,3161.58,3135.69,3382.47,349.93,344.90,8.76,0000 0000 0000 0000 000000
2014-10-29 02:08:32,0.08,0.66,0.00,22.94,27.22,29.99,4.76,27.17,1008.85,2034.99,3160.22,3134.90,3381.45,350.06,345.11,8.79,0000 0000 0000 0000 000000
2014-10-29 02:13:33,0.11,0.67,0.00,22.94,27.22,30.00,4.79,27.25,1008.83,2034.99,3158.82,3134.03,3380.40,350.32,345.41,8.82,0000 0000 0000 0000 000000
2014-10-29 02:18:34,0.11,0.67,0.00,22.94,27.22,30.02,4.72,27.23,1008.82,2035.00,3157.51,3133.19,3379.50,349.21,344.21,8.85,0000 0000 0000 0000 000000
2014-10-29 02:23:35,0.10,0.67,0.00,22.93,27.22,29.99,4.72,27.19,1008.81,2035.00,3156.15,3132.29,3378.49,350.12,345.21,8.88,0000 0000 0000 0000 000000
2014-10-29 02:28:37,0.12,0.68,0.00,22.93,27.22,29.99,4.74,27.11,1008.85,2035.00,3154.72,3131.24,3377.26,349.63,344.56,8.90,0000 0000 0000 0000 000000
2014-10-29 02:33:38,0.14,0.68,0.00,22.92,27.22,29.98,4.75,27.28,1008.91,2035.00,3152.93,3130.01,3375.94,350.10,345.26,8.93,0000 0000 0000 0000 000000
2014-10-29 02:38:40,0.15,0.68,0.00,22.91,27.22,30.00,4.70,27.35,1008.82,2035.00,3151.07,3128.77,3374.57,349.46,344.59,8.96,0000 0000 0000 0000 000000
2014-10-29 02:43:41,0.13,0.69,0.00,22.91,27.22,30.00,4.75,27.20,1008.83,2035.00,3149.40,3127.58,3373.08,350.08,345.16,8.99,0000 0000 0000 0000 000000
2014-10-29 02:48:43,0.15,0.69,0.00,22.89,27.22,29.98,4.72,27.48,1009.12,2035.00,3147.64,3126.36,3371.63,349.32,344.52,9.02,0000 0000 0000 0000 000000
2014-10-29 02:53:44,0.14,0.70,0.00,22.91,27.22,30.01,4.69,27.25,1009.29,2035.00,3145.77,3125.06,3370.14,349.24,344.51,9.05,0000 0000 0000 0000 000000
2014-10-29 02:58:45,0.16,0.70,0.00,22.92,27.22,29.98,4.72,27.34,1009.30,2034.99,3143.94,3123.75,3368.58,350.13,345.55,9.08,0000 0000 0000 0000 000000
2014-10-29 03:03:47,0.15,0.71,0.00,22.91,27.22,29.96,4.76,27.32,1009.34,2034.99,3141.99,3122.47,3367.05,350.06,345.47,9.11,0000 0000 0000 0000 000000
2014-10-29 03:08:48,0.15,0.71,0.00,22.89,27.22,29.99,4.72,27.32,1009.32,2034.98,3140.02,3121.17,3365.46,350.20,345.34,9.14,0000 0000 0000 0000 000000
2014-10-29 03:13:49,0.18,0.72,0.00,22.89,27.22,29.99,4.80,27.28,1009.47,2034.98,3137.93,3119.71,3363.77,349.72,345.16,9.17,0000 0000 0000 0000 000000
2014-10-29 03:18:51,0.16,0.72,0.00,22.89,27.22,29.99,4.69,27.38,1009.69,2034.98,3135.88,3118.31,3362.13,349.30,344.75,9.20,0000 0000 0000 0000 000000
2014-10-29 03:23:52,0.16,0.73,0.00,22.90,27.22,29.98,4.74,27.27,1009.39,2034.99,3134.04,3116.93,3360.60,350.40,345.69,9.23,0000 0000 0000 0000 000000
2014-10-29 03:28:53,0.17,0.73,0.00,22.89,27.22,30.01,4.78,27.45,1009.32,2034.99,3131.96,3115.54,3358.87,350.02,345.43,9.26,0000 0000 0000 0000 000000
2014-10-29 03:33:54,0.17,0.74,0.00,22.90,27.22,29.99,4.76,27.31,1009.61,2034.97,3129.82,3114.01,3357.16,350.24,345.69,9.28,0000 0000 0000 0000 000000
2014-10-29 03:38:55,0.18,0.74,0.00,22.92,27.22,30.02,4.76,27.43,1009.78,2034.96,3127.57,3112.53,3355.39,350.26,345.65,9.31,0000 0000 0000 0000 000000
2014-10-29 03:43:56,0.16,0.75,0.00,22.91,27.22,29.94,4.85,27.33,1009.78,2034.94,3125.47,3111.12,3353.74,350.49,345.85,9.34,0000 0000 0000 0000 000000
2014-10-29 03:48:58,0.18,0.75,0.00,22.91,27.22,29.99,4.80,27.30,1009.78,2034.96,3123.35,3109.71,3352.17,350.34,345.73,9.37,0000 0000 0000 0000 000000
2014-10-29 03:53:59,0.17,0.76,0.00,22.92,27.22,29.98,4.82,27.41,1009.78,2034.99,3121.24,3108.28,3350.47,350.04,345.45,9.40,0000 0000 0000 0000 000000
2014-10-29 03:59:00,0.19,0.76,0.00,22.92,27.22,29.96,4.77,27.52,1009.78,2034.97,3118.88,3106.67,3348.64,349.41,344.86,9.43,0000 0000 0000 0000 000000
2014-10-29 04:04:01,0.18,0.77,0.00,22.91,27.22,29.96,4.79,27.57,1009.79,2034.95,3116.62,3105.09,3346.75,350.24,345.69,9.46,0000 0000 0000 0000 000000
2014-10-29 04:09:02,0.20,0.77,0.00,22.91,27.22,30.00,4.73,27.46,1009.79,2034.93,3114.14,3103.33,3344.80,349.29,344.69,9.49,0000 0000 0000 0000 000000
2014-10-29 04:14:04,0.19,0.78,0.00,22.88,27.21,30.00,4.82,27.31,1009.81,2034.86,3111.59,3101.59,3342.90,350.32,345.82,9.52,0000 0000 0000 0000 000000
2014-10-29 04:19:06,0.19,0.79,0.00,22.88,27.21,30.00,4.71,27.24,1010.02,2034.94,3109.27,3100.00,3341.15,349.87,345.35,9.55,0000 0000 0000 0000 000000
2014-10-29 04:24:07,0.19,0.79,0.00,22.88,27.21,29.97,4.80,27.30,1010.12,2034.91,3106.80,3098.36,3339.17,350.25,345.85,9.58,0000 0000 0000 0000 000000
2014-10-29 04:29:09,0.21,0.80,0.00,22.92,27.21,29.95,4.77,27.16,1010.23,2034.92,3104.41,3096.69,3337.23,349.93,345.38,9.61,0000 0000 0000 0000 000000
2014-10-29 04:34:10,0.19,0.80,0.00,22.93,27.21,29.92,4.76,27.08,1010.27,2034.80,3101.92,3094.86,3335.21,349.66,345.17,9.64,0000 0000 0000 0000 000000
2014-10-29 04:39:11,0.15,0.81,0.00,22.92,27.21,29.96,4.82,27.60,1010.27,2034.47,3099.29,3093.05,3333.10,349.98,345.68,9.67,0000 0000 0000 0000 000000
2014-10-29 04:44:12,0.26,0.82,0.00,22.92,27.21,29.99,4.75,27.22,1010.29,2034.68,3096.75,3091.39,3331.22,350.20,345.84,9.70,0000 0000 0000 0000 000000
2014-10-29 04:49:14,0.21,0.82,0.00,22.92,27.21,30.01,4.81,27.29,1010.37,2034.76,3094.13,3089.61,3329.19,350.73,346.37,9.72,0000 0000 0000 0000 000000
2014-10-29 04:54:15,0.25,0.83,0.00,22.91,27.21,30.01,4.78,27.28,1010.43,2034.87,3091.42,3087.79,3327.22,349.85,345.50,9.75,0000 0000 0000 0000 000000
2014-10-29 04:59:16,0.21,0.84,0.00,22.92,27.21,29.98,4.76,27.31,1010.61,2034.75,3088.63,3085.85,3325.10,350.12,345.92,9.78,0000 0000 0000 0000 000000
2014-10-29 05:04:18,0.23,0.84,0.00,22.92,27.20,29.98,4.76,27.17,1010.67,2034.74,3085.85,3083.86,3322.77,349.40,345.09,9.81,0000 0000 0000 0000 000000
2014-10-29 05:09:19,0.23,0.85,0.00,22.90,27.20,30.00,4.80,27.48,1010.75,2034.63,3082.95,3081.87,3320.45,349.76,345.65,9.84,0000 0000 0000 0000 000000
2014-10-29 05:14:20,0.23,0.86,0.00,22.89,27.20,29.99,4.74,27.23,1010.76,2034.50,3080.08,3079.86,3318.21,349.83,345.60,9.87,0000 0000 0000 0000 000000
2014-10-29 05:19:22,0.28,0.86,0.00,22.87,27.21,30.00,4.75,27.35,1010.75,2034.76,3077.20,3077.92,3315.96,349.70,345.81,9.90,0000 0000 0000 0000 000000
2014-10-29 05:24:23,0.20,0.87,0.00,22.87,27.20,29.99,4.74,27.32,1010.76,2034.65,3074.23,3075.83,3313.59,349.83,345.68,9.93,0000 0000 0000 0000 000000
2014-10-29 05:29:24,0.22,0.88,0.00,22.87,27.20,29.99,4.81,27.50,1010.76,2034.41,3071.21,3073.76,3311.21,350.41,346.24,9.96,0000 0000 0000 0000 000000
2014-10-29 05:34:26,0.22,0.88,0.00,22.86,27.20,29.98,4.74,27.47,1010.57,2034.26,3068.19,3071.64,3308.72,349.80,345.60,9.99,0000 0000 0000 0000 000000
2014-10-29 05:39:27,0.25,0.89,0.00,22.85,27.20,30.01,4.74,27.63,1010.30,2034.13,3064.99,3069.52,3306.21,350.14,345.94,10.02,0000 0000 0000 0000 000000
2014-10-29 05:44:28,0.28,0.90,0.00,22.87,27.20,29.98,4.82,27.48,1010.28,2034.21,3061.91,3067.40,3303.86,350.41,346.21,10.05,0000 0000 0000 0000 000000
2014-10-29 05:49:29,0.25,0.91,0.00,22.86,27.20,29.97,4.79,27.61,1010.29,2034.09,3058.69,3065.21,3301.31,349.94,345.53,10.08,0000 0000 0000 0000 000000
2014-10-29 05:54:30,0.25,0.91,0.00,22.83,27.20,30.04,4.78,27.39,1010.39,2034.11,3055.68,3063.14,3298.87,350.60,346.31,10.11,0000 0000 0000 0000 000000
2014-10-29 05:59:31,0.27,0.92,0.00,22.81,27.20,30.01,4.75,27.41,1010.69,2034.11,3052.59,3060.99,3296.45,349.74,345.70,10.13,0000 0000 0000 0000 000000
2014-10-29 06:04:32,0.25,0.93,0.00,22.79,27.20,29.96,4.75,27.43,1010.75,2034.08,3049.57,3058.89,3294.04,349.85,345.78,10.16,0000 0000 0000 0000 000000
2014-10-29 06:09:34,0.25,0.94,0.00,22.82,27.20,29.99,4.78,27.44,1010.76,2034.05,3046.38,3056.74,3291.64,350.51,346.29,10.19,0000 0000 0000 0000 000000
2014-10-29 06:14:35,0.27,0.95,0.00,22.81,27.21,29.99,4.84,27.54,1010.76,2034.08,3043.18,3054.56,3289.22,350.17,346.06,10.22,0000 0000 0000 0000 000000
2014-10-29 06:19:36,0.25,0.95,0.00,22.82,27.22,30.00,4.73,27.35,1010.75,2034.08,3040.07,3052.35,3286.80,350.34,346.23,10.25,0000 0000 0000 0000 000000
2014-10-29 06:24:37,0.28,0.96,0.00,22.80,27.22,29.98,4.73,27.44,1010.76,2034.07,3036.95,3050.21,3284.29,349.48,345.69,10.28,0000 0000 0000 0000 000000
2014-10-29 06:29:38,0.26,0.97,0.00,22.79,27.22,29.99,4.74,27.34,1010.76,2034.03,3033.74,3047.99,3281.72,349.51,345.69,10.31,0000 0000 0000 0000 000000
2014-10-29 06:34:40,0.28,0.98,0.00,22.78,27.22,30.00,4.81,27.37,1010.78,2034.04,3030.50,3045.75,3279.22,349.99,345.86,10.34,0000 0000 0000 0000 000000
2014-10-29 06:39:41,0.27,0.98,0.00,22.80,27.22,30.01,4.77,27.63,1010.78,2034.03,3027.24,3043.44,3276.64,350.25,346.36,10.37,0000 0000 0000 0000 000000
2014-10-29 06:44:42,0.26,0.99,0.00,22.80,27.22,29.98,4.74,27.46,1010.77,2034.02,3024.19,3041.29,3274.22,350.10,346.15,10.40,0000 0000 0000 0000 000000
2014-10-29 06:49:44,0.28,1.00,0.00,22.79,27.22,29.99,4.76,27.48,1010.77,2034.00,3020.95,3039.05,3271.59,350.29,346.28,10.43,0000 0000 0000 0000 000000
2014-10-29 06:54:45,0.27,1.01,0.00,22.77,27.23,30.03,4.74,27.51,1010.78,2034.00,3017.69,3036.71,3269.12,349.77,345.74,10.46,0000 0000 0000 0000 000000
2014-10-29 06:59:46,0.28,1.02,0.00,22.78,27.24,30.00,4.79,27.43,1010.91,2034.00,3014.33,3034.36,3266.46,349.84,345.88,10.49,0000 0000 0000 0000 000000
2014-10-29 07:04:48,0.28,1.03,0.00,22.77,27.25,30.01,4.76,27.29,1010.90,2034.00,3011.02,3032.14,3263.96,350.09,346.40,10.52,0000 0000 0000 0000 000000
2014-10-29 07:09:49,0.27,1.03,0.00,22.78,27.25,30.04,4.75,27.23,1010.81,2034.00,3007.80,3029.80,3261.57,350.24,346.10,10.54,0000 0000 0000 0000 000000
2014-10-29 07:14:50,0.27,1.04,0.00,22.77,27.25,30.05,4.81,27.44,1010.79,2034.00,3004.56,3027.56,3259.13,350.42,346.33,10.57,0000 0000 0000 0000 000000
2014-10-29 07:19:51,0.29,1.05,0.00,22.76,27.25,30.05,4.81,27.29,1010.79,2034.00,3001.25,3025.21,3256.42,350.15,346.12,10.60,0000 0000 0000 0000 000000
2014-10-29 07:24:52,0.28,1.06,0.00,22.76,27.26,30.04,4.82,27.39,1010.78,2033.99,2998.05,3022.97,3253.92,350.42,346.40,10.63,0000 0000 0000 0000 000000
2014-10-29 07:29:53,0.27,1.07,0.00,22.76,27.27,30.08,4.77,27.41,1010.77,2033.99,2994.90,3020.71,3251.34,350.28,346.08,10.66,0000 0000 0000 0000 000000
2014-10-29 07:34:55,0.28,1.07,0.00,22.76,27.27,30.08,4.75,27.52,1010.76,2033.98,2991.68,3018.40,3248.76,349.42,345.60,10.69,0000 0000 0000 0000 000000
2014-10-29 07:39:56,0.31,1.08,0.00,22.77,27.27,30.08,4.66,27.63,1010.78,2033.96,2988.22,3016.00,3246.10,349.42,345.47,10.72,0000 0000 0000 0000 000000
2014-10-29 07:44:57,0.28,1.09,0.00,22.76,27.27,30.10,4.80,27.31,1010.97,2033.97,2984.97,3013.73,3243.58,350.53,346.55,10.75,0000 0000 0000 0000 000000
2014-10-29 07:49:59,0.29,1.10,0.00,22.74,27.27,30.08,4.76,27.60,1011.19,2033.98,2981.75,3011.34,3240.91,350.66,346.78,10.78,0000 0000 0000 0000 000000
2014-10-29 07:55:00,0.28,1.11,0.00,22.74,27.28,30.08,4.72,27.48,1011.24,2033.93,2978.46,3009.09,3238.33,349.82,345.97,10.81,0000 0000 0000 0000 000000
2014-10-29 08:00:02,0.26,1.12,0.00,22.74,27.29,30.14,4.72,27.47,1011.25,2033.85,2975.15,3006.91,3235.72,349.62,345.69,10.84,0000 0000 0000 0000 000000
2014-10-29 08:05:03,0.29,1.13,0.00,22.74,27.30,30.12,4.80,27.54,1011.25,2033.92,2971.76,3004.64,3233.22,349.46,345.75,10.87,0000 0000 0000 0000 000000
2014-10-29 08:10:04,0.27,1.14,0.00,22.73,27.30,30.13,4.73,27.55,1011.27,2033.84,2968.57,3002.36,3230.57,349.25,345.42,10.90,0000 0000 0000 0000 000000
2014-10-29 08:15:06,0.29,1.14,0.00,22.73,27.30,30.14,4.81,27.57,1011.35,2033.81,2965.28,3000.08,3228.05,350.34,346.54,10.93,0000 0000 0000 0000 000000
2014-10-29 08:20:07,0.28,1.15,0.00,22.76,27.30,30.13,4.76,27.42,1011.40,2033.79,2962.02,2997.83,3225.57,349.91,346.18,10.95,0000 0000 0000 0000 000000
2014-10-29 08:25:08,0.25,1.16,0.00,22.75,27.30,30.15,4.74,27.44,1011.45,2033.62,2958.70,2995.50,3222.98,350.28,346.64,10.98,0000 0000 0000 0000 000000
2014-10-29 08:30:10,0.29,1.17,0.00,22.73,27.30,30.13,4.80,27.55,1011.46,2033.61,2955.45,2993.19,3220.47,349.93,346.17,11.01,0000 0000 0000 0000 000000
2014-10-29 08:35:11,0.28,1.17,0.00,22.73,27.30,30.15,4.80,27.77,1011.26,2033.42,2952.19,2990.89,3217.86,350.05,346.18,11.04,0000 0000 0000 0000 000000
2014-10-29 08:40:13,0.24,1.18,0.00,22.73,27.30,30.16,4.81,27.92,1011.25,2033.27,2948.81,2988.49,3215.23,349.93,346.05,11.07,0000 0000 0000 0000 000000
2014-10-29 08:45:14,0.30,1.19,0.00,22.74,27.32,30.17,4.80,27.57,1011.24,2033.42,2945.59,2986.20,3212.71,349.55,345.74,11.10,0000 0000 0000 0000 000000
2014-10-29 08:50:15,0.26,1.20,0.00,22.74,27.32,30.17,4.77,27.59,1011.24,2033.24,2942.37,2983.90,3210.08,349.97,346.11,11.13,0000 0000 0000 0000 000000
2014-10-29 08:55:16,0.27,1.21,0.00,22.75,27.32,30.19,4.74,27.67,1011.25,2033.17,2939.13,2981.58,3207.52,349.95,346.12,11.16,0000 0000 0000 0000 000000
2014-10-29 09:00:17,0.30,1.22,0.00,22.74,27.32,30.18,4.78,27.49,1011.25,2033.07,2935.78,2979.19,3204.85,350.37,346.48,11.19,0000 0000 0000 0000 000000
2014-10-29 09:05:19,0.28,1.23,0.00,22.73,27.32,30.20,4.77,27.57,1011.24,2033.06,2932.58,2976.96,3202.32,349.78,345.85,11.22,0000 0000 0000 0000 000000
2014-10-29 09:10:20,0.28,1.23,0.00,22.74,27.32,30.20,4.77,27.52,1011.24,2033.06,2929.27,2974.57,3199.71,350.02,346.18,11.25,0000 0000 0000 0000 000000
2014-10-29 09:15:21,0.30,1.24,0.00,22.72,27.32,30.20,4.76,27.59,1011.24,2033.07,2926.10,2972.31,3197.24,349.80,345.94,11.28,0000 0000 0000 0000 000000
2014-10-29 09:20:22,0.29,1.25,0.00,22.72,27.32,30.18,4.75,27.63,1011.24,2033.05,2922.75,2969.86,3194.48,350.01,346.28,11.31,0000 0000 0000 0000 000000
2014-10-29 09:25:24,0.29,1.26,0.00,22.72,27.33,30.21,4.73,27.62,1011.25,2033.07,2919.53,2967.61,3191.99,349.90,346.12,11.34,0000 0000 0000 0000 000000
2014-10-29 09:30:25,0.28,1.27,0.00,22.76,27.34,30.23,4.79,27.52,1011.26,2033.03,2916.38,2965.32,3189.41,350.19,346.32,11.36,0000 0000 0000 0000 000000
2014-10-29 09:35:26,0.29,1.28,0.00,22.76,27.35,30.19,4.79,27.57,1011.27,2033.02,2913.09,2963.02,3186.87,350.09,346.23,11.39,0000 0000 0000 0000 000000
2014-10-29 09:40:27,0.29,1.29,0.00,22.74,27.35,30.21,4.76,27.83,1011.50,2033.01,2909.76,2960.66,3184.32,350.21,346.45,11.42,0000 0000 0000 0000 000000
2014-10-29 09:45:28,0.29,1.29,0.00,22.75,27.35,30.19,4.71,27.52,1011.63,2033.00,2906.68,2958.41,3181.80,349.31,345.58,11.45,0000 0000 0000 0000 000000
2014-10-29 09:50:30,0.29,1.30,0.00,22.74,27.35,30.21,4.78,27.75,1011.61,2033.00,2903.42,2956.08,3179.23,350.20,346.48,11.48,0000 0000 0000 0000 000000
2014-10-29 09:55:31,0.29,1.31,0.00,22.78,27.35,30.21,4.75,27.55,1011.72,2033.00,2900.23,2953.81,3176.68,349.86,346.13,11.51,0000 0000 0000 0000 000000
2014-10-29 10:00:32,0.28,1.32,0.00,22.78,27.35,30.21,4.75,27.55,1011.73,2033.00,2897.03,2951.50,3174.15,349.75,346.23,11.54,0000 0000 0000 0000 000000
2014-10-29 10:05:33,0.30,1.33,0.00,22.77,27.36,30.20,4.80,27.61,1011.74,2033.00,2893.79,2949.18,3171.57,350.36,346.72,11.57,0000 0000 0000 0000 000000
2014-10-29 10:10:35,0.29,1.34,0.00,22.79,27.37,30.18,4.78,27.63,1011.73,2033.00,2890.61,2946.88,3169.01,350.10,346.36,11.60,0000 0000 0000 0000 000000
2014-10-29 10:15:36,0.28,1.35,0.00,22.78,27.37,30.25,4.72,27.59,1011.69,2033.00,2887.50,2944.70,3166.45,349.64,345.89,11.63,0000 0000 0000 0000 000000
2014-10-29 10:20:38,0.28,1.35,0.00,22.76,27.37,30.23,4.68,27.52,1011.46,2032.99,2884.29,2942.45,3163.95,349.14,345.35,11.66,0000 0000 0000 0000 000000
2014-10-29 10:25:39,0.28,1.36,0.00,22.75,27.37,30.23,4.73,27.59,1011.62,2032.99,2881.17,2940.26,3161.48,350.09,346.31,11.69,0000 0000 0000 0000 000000
2014-10-29 10:30:41,0.29,1.37,0.00,22.76,27.38,30.23,4.69,27.51,1011.71,2032.99,2878.20,2938.05,3159.05,349.47,345.85,11.72,0000 0000 0000 0000 000000
2014-10-29 10:35:42,0.28,1.38,0.00,22.77,27.40,30.27,4.73,27.61,1011.69,2032.99,2875.06,2935.77,3156.54,349.10,345.46,11.75,0000 0000 0000 0000 000000
2014-10-29 10:40:43,0.29,1.39,0.00,22.77,27.40,30.25,4.78,27.73,1011.71,2032.99,2871.86,2933.46,3154.03,349.82,345.98,11.77,0000 0000 0000 0000 000000
2014-10-29 10:45:44,0.28,1.40,0.00,22.76,27.40,30.26,4.77,27.56,1011.70,2032.99,2868.76,2931.21,3151.54,349.90,346.18,11.80,0000 0000 0000 0000 000000
2014-10-29 10:50:45,0.29,1.40,0.00,22.73,27.40,30.29,4.83,27.49,1011.69,2032.97,2865.55,2929.00,3149.13,350.36,346.74,11.83,0000 0000 0000 0000 000000
2014-10-29 10:55:47,0.28,1.41,0.00,22.75,27.40,30.30,4.80,27.56,1011.72,2032.96,2862.44,2926.70,3146.57,349.91,346.63,11.86,0000 0000 0000 0000 000000
2014-10-29 11:00:48,0.28,1.42,0.00,22.74,27.41,30.28,4.77,27.35,1011.73,2032.91,2859.29,2924.40,3144.06,349.70,346.15,11.89,0000 0000 0000 0000 000000
2014-10-29 11:05:49,0.28,1.43,0.00,22.74,27.42,30.31,4.83,27.52,1011.73,2032.85,2856.14,2922.17,3141.57,350.30,346.51,11.92,0000 0000 0000 0000 000000
2014-10-29 11:10:50,0.28,1.44,0.00,22.76,27.42,30.31,4.78,27.60,1011.72,2032.86,2853.07,2920.02,3139.14,349.86,346.01,11.95,0000 0000 0000 0000 000000
2014-10-29 11:15:51,0.27,1.45,0.00,22.78,27.42,30.28,4.77,27.48,1011.65,2032.76,2849.91,2917.76,3136.61,349.95,346.10,11.98,0000 0000 0000 0000 000000
2014-10-29 11:20:53,0.27,1.45,0.00,22.75,27.42,30.30,4.83,27.49,1011.50,2032.68,2846.70,2915.46,3134.28,350.08,346.31,12.01,0000 0000 0000 0000 000000
2014-10-29 11:25:54,0.29,1.46,0.00,22.75,27.42,30.34,4.75,27.56,1011.66,2032.70,2843.55,2913.27,3131.85,350.10,346.38,12.04,0000 0000 0000 0000 000000
2014-10-29 11:30:55,0.29,1.47,0.00,22.75,27.42,30.34,4.83,27.45,1011.58,2032.62,2840.45,2911.03,3129.43,349.96,346.21,12.07,0000 0000 0000 0000 000000
2014-10-29 11:35:56,0.28,1.48,0.00,22.79,27.43,30.31,4.80,27.56,1011.60,2032.43,2837.23,2908.68,3126.90,350.53,346.74,12.10,0000 0000 0000 0000 000000
2014-10-29 11:40:57,0.27,1.49,0.00,22.77,27.44,30.33,4.73,27.62,1011.49,2032.26,2834.04,2906.42,3124.32,349.81,346.05,12.13,0000 0000 0000 0000 000000
2014-10-29 11:45:59,0.29,1.50,0.00,22.75,27.45,30.34,4.74,27.48,1011.48,2032.22,2831.00,2904.15,3121.71,349.47,345.70,12.15,0000 0000 0000 0000 000000
2014-10-29 11:51:01,0.28,1.50,0.00,22.72,27.45,30.34,4.81,27.45,1011.42,2032.14,2827.81,2901.83,3119.20,350.17,346.41,12.18,0000 0000 0000 0000 000000
2014-10-29 11:56:02,0.30,1.51,0.00,22.77,27.45,30.33,4.79,27.54,1011.35,2032.10,2824.63,2899.53,3116.60,349.96,346.03,12.21,0000 0000 0000 0000 000000
2014-10-29 12:01:03,0.29,1.52,0.00,22.81,27.45,30.30,4.84,27.82,1011.28,2032.08,2821.55,2897.30,3114.12,349.97,346.34,12.24,0000 0000 0000 0000 000000
2014-10-29 12:06:05,0.29,1.53,0.00,22.75,27.45,30.28,4.75,27.48,1011.42,2032.07,2818.40,2895.04,3111.55,349.91,346.06,12.27,0000 0000 0000 0000 000000
2014-10-29 12:11:06,0.28,1.54,0.00,22.73,27.46,30.29,4.73,27.54,1011.36,2032.04,2815.46,2892.81,3109.09,350.04,346.20,12.30,0000 0000 0000 0000 000000
2014-10-29 12:16:07,0.29,1.55,0.00,22.72,27.47,30.30,4.77,27.71,1011.46,2032.03,2812.37,2890.56,3106.56,350.28,346.43,12.33,0000 0000 0000 0000 000000
2014-10-29 12:21:08,0.29,1.56,0.00,22.76,27.47,30.33,4.77,27.77,1011.34,2032.04,2809.28,2888.38,3104.07,349.94,346.06,12.36,0000 0000 0000 0000 000000
2014-10-29 12:26:10,0.30,1.57,0.00,22.90,27.47,30.33,4.80,27.73,1011.27,2032.01,2806.07,2886.05,3101.45,350.24,346.27,12.39,0000 0000 0000 0000 000000
2014-10-29 12:31:11,0.30,1.57,0.00,22.93,27.47,30.33,4.75,27.72,1011.25,2032.01,2802.86,2883.77,3098.95,349.79,345.74,12.42,0000 0000 0000 0000 000000
2014-10-29 12:36:13,0.32,1.58,0.00,23.03,27.47,30.31,4.74,27.87,1011.24,2032.00,2799.63,2881.39,3096.27,349.71,345.58,12.45,0000 0000 0000 0000 000000
2014-10-29 12:41:14,0.29,1.59,0.00,22.87,27.49,30.32,4.67,27.71,1011.25,2032.00,2796.32,2879.15,3093.67,349.47,345.48,12.48,0000 0000 0000 0000 000000
2014-10-29 12:46:15,0.28,1.60,0.00,22.95,27.50,30.36,4.78,27.74,1011.24,2032.00,2793.36,2877.10,3091.30,349.79,345.54,12.51,0000 0000 0000 0000 000000
2014-10-29 12:51:16,0.30,1.61,0.00,23.11,27.50,30.35,4.78,27.75,1011.17,2032.00,2790.19,2874.88,3088.86,349.98,345.55,12.54,0000 0000 0000 0000 000000
2014-10-29 12:56:18,0.29,1.62,0.00,23.29,27.50,30.31,4.81,27.75,1011.17,2032.00,2787.14,2872.71,3086.37,350.28,345.59,12.57,0000 0000 0000 0000 000000
2014-10-29 13:01:19,0.30,1.63,0.00,23.20,27.50,30.32,4.79,27.82,1011.10,2032.00,2783.99,2870.47,3083.89,350.14,345.80,12.59,0000 0000 0000 0000 000000